Location: Génissiat
(46.0533°N, 5.7975°E)
Time: 17:13:42
(UTC+00:00)

Daily predictions for brighter satellites

Satellite Brightness Start Highest point End
(mag) Time Altitude Azimuth Time Altitude Azimuth Time Altitude Azimuth
Cosmos 1844 Rocket 2.9 17:08:35 10° NNW 17:14:00 48° ENE 17:19:21 10° SE
APEX 4.4 17:08:27 10° SSW 17:14:32 86° WNW 17:20:07 10° NNE
ATLAS CENTAUR R/B 3.3 17:11:18 10° WSW 17:15:24 29° NW 17:19:23 10° NNE
Cosmos 841 Rocket 4.4 17:12:54 10° N 17:17:23 27° NE 17:21:50 10° ESE
Cosmos 1536 Rocket 3.7 17:14:51 10° S 17:19:10 82° W 17:23:33 10° N
Cosmos 2228 2.9 17:15:13 10° N 17:19:28 80° E 17:23:41 10° SSE
USA 281 4.0 17:14:03 10° NNE 17:20:25 53° WNW 17:26:45 10° SW
Landsat 4 4.4 17:17:35 10° S 17:21:09 58° WSW 17:24:46 10° NNW
Cosmos 1892 2.6 17:22:49 10° S 17:26:30 64° E 17:30:14 10° NNE
CZ-4B R/B 4.0 17:24:44 10° ESE 17:29:11 27° ENE 17:33:43 10° N
CZ-4B DEB 4.4 17:24:03 10° SE 17:29:15 48° ENE 17:34:31 10° N
Cosmos 1825 2.5 17:26:05 10° SSE 17:29:32 40° E 17:33:01 10° NNE
Cosmos 1328 4.2 17:25:46 10° SSW 17:29:43 69° W 17:33:40 10° N
Cosmos 1606 Rocket 3.5 17:26:38 10° N 17:30:54 58° ENE 17:35:10 10° SSE
ADEOS 3.9 17:25:44 10° S 17:30:56 73° WSW 17:36:10 10° NNW
ISS -1.1 17:31:27 10° W 17:34:07 22° SW 17:36:47 10° S
Lacrosse 5 rocket 1.3 17:31:57 10° NW 17:35:25 45° NNE 17:38:58 10° ESE
Cosmos 1844 3.8 17:30:45 10° NNW 17:36:33 61° ENE 17:42:13 10° SE
Meteor 1-11 4.3 17:31:14 10° S 17:36:59 68° E 17:42:44 10° NNE
Cosmos 2219 Rocket 3.2 17:33:20 10° SSE 17:37:42 24° ESE 17:42:06 10° NE
Cosmos 2360 Rocket 2.4 17:33:16 10° S 17:38:43 53° ESE 17:44:14 10° NE
Cosmos 1892 Rocket 3.8 17:39:45 10° SSE 17:43:58 46° E 17:48:10 10° NNE
Nadezhda 2 Rocket 4.4 17:38:35 10° N 17:44:45 64° E 17:50:47 10° SSE
Cosmos 1461 3.0 17:42:30 10° SW 17:46:46 88° NW 17:51:16 10° NE
Cosmos 676 Rocket 4.0 17:42:31 10° SSW 17:47:48 89° WNW 17:53:06 10° NNE
Cosmos 2278 Rocket 3.7 17:46:44 10° N 17:50:17 17° NE 17:52:12 14° ENE
Cosmos 1340 3.1 17:46:55 10° N 17:50:19 35° ENE 17:53:43 10° SE
COSMO-SKYMED 1 2.5 17:46:09 10° NNE 17:50:32 80° ESE 17:54:52 10° S
Cosmos 44 Rocket 4.0 17:46:43 10° S 17:50:53 33° ESE 17:54:10 15° ENE
Cosmos 2322 Rocket 2.2 17:46:42 10° SSW 17:52:19 85° WNW 17:57:59 10° NNE
CZ-4C R/B 3.0 17:50:01 10° NNE 17:53:47 70° ESE 17:57:21 10° S
Cosmos 2333 Rocket 2.5 17:48:37 10° S 17:53:58 46° ESE 17:59:23 10° NE
BlueWalker 3 3.2 17:51:11 10° NW 17:54:35 28° N 17:56:48 17° NE
Cosmos 1633 2.2 17:55:06 10° S 17:58:26 72° E 18:01:47 10° NNE
CZ-4 R/B 2.1 17:57:40 10° SE 18:01:16 30° ENE 18:04:50 10° N
Cosmos 1726 Rocket 3.5 17:57:54 10° N 18:02:14 85° W 18:06:33 10° S
Cosmos 1606 3.7 17:59:46 10° NNE 18:02:59 25° ENE 18:03:58 22° E
Atlas Centaur 2 4.5 17:59:00 10° SW 18:04:53 23° SSE 18:11:06 10° ESE
IRIDIUM 106 4.3 17:59:57 10° N 18:05:09 61° E 18:10:18 10° SSE
In-Cosmos 22 Rocket 4.3 18:00:36 10° S 18:06:25 87° W 18:12:18 10° N
SL-16 R/B 3.2 18:03:03 10° SW 18:08:30 48° WNW 18:14:00 10° NNE
COSMOS 2428 3.6 18:04:27 10° SSE 18:09:04 26° ESE 18:11:03 21° ENE
RESURS DK-1 2.5 18:06:44 10° NNW 18:10:50 74° WSW 18:14:56 10° SSE
SL-4 R/B 2.3 18:08:06 10° WNW 18:11:28 40° NNE 18:12:47 29° ENE
Cosmos 2333 4.2 18:07:40 10° S 18:13:11 63° ESE 18:18:47 10° NNE
Genesis I 3.3 18:10:56 10° SW 18:14:53 75° NW 18:17:45 18° NNE
Cosmos 1626 Rocket 4.1 18:13:09 10° SSE 18:17:02 34° E 18:19:21 20° NE
Cosmos 1943 Rocket 4.1 18:18:29 10° NNE 18:20:44 12° NE 18:20:45 12° NE
Spot 1 4.4 18:21:46 31° ENE 18:22:53 37° E 18:26:41 10° SSE
Okean O Rocket 1.7 18:21:51 10° SSE 18:26:07 52° ENE 18:30:26 10° N
Cosmos 1386 Rocket 4.3 18:20:42 10° N 18:26:42 72° E 18:32:45 10° SSE
Cosmos 1745 Rocket 3.9 18:21:52 10° N 18:28:06 69° E 18:34:14 10° SSE
Lacrosse 5 2.7 18:25:02 10° W 18:29:55 44° NNW 18:33:05 20° NE
Feng Yun 1-1 Rocket 4.2 18:25:29 10° SE 18:30:52 56° ENE 18:36:11 10° N
IGS 5A 3.7 18:31:16 41° ENE 18:31:27 41° ENE 18:35:20 10° N
MOS 1-B 4.3 18:26:23 10° SSE 18:32:11 89° ENE 18:38:03 10° NNW
Cosmos 2322 3.8 18:28:06 10° S 18:33:38 54° ESE 18:37:02 23° NE
CZ-2C R/B 4.3 18:30:44 10° NNE 18:34:53 43° E 18:49:01 10° SSE
Okean 1-7 Rocket 3.6 18:32:07 10° S 18:36:25 53° E 18:39:08 22° NNE
DMSP B5D1-3 4.4 18:33:32 10° NNE 18:38:40 77° ESE 18:43:47 10° S
USA 215 4.3 18:34:21 10° SSE 18:40:34 44° SW 18:46:48 10° WNW
YAOGAN 1 3.1 18:40:16 10° S 18:44:30 58° W 18:48:47 10° NNW
Cosmos 2058 Rocket 3.8 18:40:54 10° NNW 18:45:12 53° W 18:49:31 10° S
Cosmos 1709 Rocket 3.9 18:40:14 10° N 18:46:19 61° ENE 18:52:19 10° SSE
Cosmos 1814 Rocket 3.9 18:46:36 10° NNW 18:51:58 74° ENE 18:54:29 32° SSE
Cosmos 841 Rocket 4.5 18:54:26 10° NNW 18:59:28 47° WSW 19:04:27 10° S
Cosmos 883 Rocket 4.4 19:00:16 10° S 19:06:32 81° E 19:12:54 10° N
SJ-6B 4.4 19:10:10 26° N 19:10:10 26° N 19:11:59 10° NNW
USA 81 4.1 19:03:55 10° S 19:09:11 79° W 19:14:30 10° N
CZ-4B R/B 4.1 19:04:19 10° S 19:09:28 48° W 19:14:46 10° NNW
Lacrosse 5 rocket 2.9 19:11:04 10° WNW 19:14:07 25° SW 19:14:37 24° SW
Cosmos 2219 Rocket 2.7 19:15:46 10° SW 19:21:15 56° WNW 19:24:23 25° N
Cosmos 2360 Rocket 3.9 19:18:10 10° WSW 19:23:02 29° NW 19:27:55 10° N
Cosmos 1570 Rocket 4.1 19:24:21 10° NNW 19:29:08 71° NNW 19:29:08 71° NNW
Cosmos 44 Rocket 4.4 19:27:54 10° WSW 19:32:18 38° NW 19:32:55 37° NNW
BlueWalker 3 4.1 19:29:55 10° NW 19:31:36 24° NW 19:31:36 24° NW
Cosmos 2278 Rocket 2.6 19:29:41 10° NNW 19:34:04 54° N 19:34:04 54° N
CZ-4 R/B 3.6 19:32:44 10° SSW 19:36:09 25° W 19:39:32 10° NW
Cosmos 968 Rocket 3.8 19:31:36 10° SSW 19:36:19 64° W 19:36:19 64° W
Cosmos 2333 Rocket 3.8 19:33:23 10° WSW 19:38:25 32° NW 19:42:19 16° N
BREEZE-M DEB (TANK) 3.3 19:29:38 10° WSW 19:38:56 68° WNW 19:38:56 68° WNW
ATLAS 5 CENTAUR R/B 4.3 19:36:41 10° NNW 19:37:28 12° N 19:37:28 12° N
BREEZE-M DEB (TANK) 4.4 19:16:45 10° WNW 19:46:43 78° SW 19:49:08 56° SE
COSMOS 2428 3.3 19:47:27 10° SW 19:52:58 52° WNW 19:53:09 52° NW
Atlas Centaur 2 4.3 19:46:49 10° SW 19:53:20 26° S 19:53:34 26° S
CSL-04 Rocket 4.3 19:53:48 52° W 19:53:48 52° W 19:58:43 10° NNW
Okean O Rocket 4.3 19:59:52 10° SW 20:02:45 17° W 20:05:40 10° NW
Cosmos 1943 Rocket 4.1 20:00:23 10° NNW 20:02:17 21° N 20:02:17 21° N
Lacrosse 5 4.0 20:09:49 10° WNW 20:12:18 21° NW 20:12:18 21° NW
